EW8201 Weather Reports


time (UTC)temp
C
wind
direction
speed
KPH
gust
KPH
rain 1hr
cm
rain 24hr
cm
rain mn
cm
humidity
%
barometer
mb
20260906234546 18 19 8.0 14.5 0.00 0.25 0.05 71 1000.6
20260906233045 18 310 6.4 16.1 0.00 0.25 0.05 74 1000.8
20260906231542 17 313 9.7 16.1 0.00 0.25 0.05 74 1000.9
20260906230038 17 302 9.7 16.1 0.00 0.25 0.05 74 1001.2
20260906224542 16 316 9.7 19.3 0.00 0.25 0.05 77 1001.2
20260906223043 16 283 9.7 17.7 0.00 0.25 0.05 77 1001.4
20260906221540 16 271 12.9 17.7 0.00 0.25 0.05 78 1001.5
20260906220036 16 261 11.3 16.1 0.00 0.25 0.05 80 1001.4
20260906214534 16 266 8.0 12.9 0.00 0.25 0.05 81 1001.4
20260906213033 17 259 8.0 12.9 0.00 0.25 0.05 78 1001.4
20260906211534 17 228 3.2 8.0 0.00 0.25 0.05 75 1001.5
20260906210033 17 69 1.6 4.8 0.00 0.25 0.05 75 1001.3
20260906204551 17 66 3.2 9.7 0.00 0.25 0.05 76 1001.3
20260906203030 17 61 1.6 8.0 0.00 0.25 0.05 75 1001.5
20260906201529 17 83 3.2 6.4 0.00 0.25 0.05 75 1001.5
20260906200026 17 82 0.0 3.2 0.00 0.25 0.05 78 1001.5
20260906194523 16 40 0.0 3.2 0.00 0.25 0.05 80 1001.5
20260906193023 16 40 0.0 4.8 0.00 0.25 0.05 80 1001.7
20260906191521 16 40 0.0 6.4 0.00 0.25 0.05 81 1001.9
20260906190019 16 63 4.8 9.7 0.00 0.25 0.05 83 1001.9
20260906184518 16 29 4.8 16.1 0.00 0.25 0.05 85 1001.9
20260906183018 15 58 6.4 16.1 0.00 0.25 0.05 89 1001.8
20260906181518 15 24 11.3 17.7 0.00 0.25 0.05 90 1002.0
20260906180009 15 31 11.3 17.7 0.00 0.25 0.05 92 1002.2
20260906174507 14 44 12.9 20.9 0.00 0.25 0.05 93 1002.3
20260906173006 13 48 17.7 22.5 0.00 0.25 0.05 94 1002.4
20260906171504 13 42 16.1 22.5 0.00 0.25 0.05 93 1002.8
20260906170002 12 345 11.3 19.3 0.00 0.25 0.05 92 1003.8
20260906164501 12 279 11.3 17.7 0.00 0.25 0.05 92 1003.9
20260906163002 12 289 8.0 14.5 0.00 0.25 0.05 92 1004.1
20260906161601 12 317 6.4 14.5 0.00 0.25 0.05 92 1003.8
20260906160100 12 333 8.0 16.1 0.03 0.25 0.05 92 1003.7
20260906154600 12 348 11.3 17.7 0.03 0.25 0.05 92 1004.0
20260906153059 11 344 12.9 20.9 0.03 0.25 0.05 92 1004.3
20260906151601 11 347 9.7 24.1 0.05 0.25 0.05 91 1004.5
20260906150110 11 332 17.7 27.4 0.03 0.23 0.03 92 1004.3
20260906144556 11 306 16.1 29.0 0.03 0.23 0.03 91 1004.6
20260906143056 12 312 19.3 33.8 0.03 0.23 0.03 90 1004.7
20260906141550 13 306 20.9 29.0 0.00 0.20 0.00 87 1004.7
20260906140057 14 290 16.1 27.4 0.00 0.20 0.00 83 1004.4
20260906134548 14 62 1.6 6.4 0.00 0.33 0.00 86 1004.3
20260906133109 14 45 0.0 3.2 0.00 0.33 0.00 85 1004.1
20260906131545 14 26 4.8 14.5 0.00 0.33 0.00 84 1003.8
20260906130059 13 27 6.4 16.1 0.00 0.33 0.00 85 1004.1
20260906124544 13 300 6.4 16.1 0.00 0.36 0.00 85 1004.4
20260906123043 13 355 6.4 16.1 0.00 0.36 0.00 86 1004.5
20260906121543 13 319 12.9 22.5 0.00 0.36 0.00 84 1004.3
20260906120041 14 51 20.9 32.2 0.00 0.36 0.00 86 1003.4
20260906114545 13 33 12.9 19.3 0.00 0.36 0.00 84 1004.0
20260906113035 13 44 11.3 17.7 0.00 0.36 0.00 83 1004.4
20260906111538 13 44 14.5 22.5 0.00 0.36 0.00 82 1004.3
20260906110034 14 44 11.3 19.3 0.00 0.36 0.00 83 1004.2
20260906104534 14 36 12.9 22.5 0.00 0.36 0.00 82 1004.2
20260906103030 13 43 11.3 17.7 0.00 0.36 0.00 84 1004.4
20260906101530 13 47 9.7 19.3 0.00 0.36 0.00 86 1004.4
20260906100037 13 43 16.1 22.5 0.00 0.36 0.00 86 1004.1
20260906094530 13 22 17.7 25.7 0.00 0.36 0.00 88 1004.3
20260906093030 13 349 17.7 29.0 0.00 0.36 0.00 87 1004.3
20260906091527 13 355 17.7 27.4 0.00 0.36 0.00 87 1004.4
20260906090023 13 11 16.1 24.1 0.00 0.36 0.00 87 1004.8
20260906084520 13 326 12.9 24.1 0.00 0.36 0.00 86 1005.3
20260906083016 13 335 12.9 24.1 0.00 0.36 0.00 87 1005.6
20260906081518 13 325 14.5 24.1 0.00 0.36 0.00 88 1005.7
20260906080013 13 295 12.9 19.3 0.00 0.36 0.00 88 1006.0
20260906074509 13 312 3.2 8.0 0.00 0.36 0.00 88 1005.4
20260906073008 13 360 4.8 16.1 0.00 0.36 0.00 87 1005.5
20260906071509 13 17 9.7 22.5 0.00 0.36 0.00 87 1005.4
20260906070006 13 13 14.5 22.5 0.00 0.36 0.00 88 1005.5
20260906064505 13 34 12.9 20.9 0.00 0.36 0.00 87 1005.6
20260906063003 13 344 12.9 20.9 0.00 0.36 0.00 85 1006.0
20260906061603 13 342 17.7 25.7 0.00 0.36 0.00 85 1006.1
20260906060056 13 317 12.9 20.9 0.00 0.36 0.00 87 1006.6
20260906054604 13 355 11.3 20.9 0.00 0.36 0.36 87 1006.0
20260906053100 13 360 14.5 22.5 0.00 0.36 0.36 89 1005.7
20260906051610 12 5 6.4 12.9 0.00 0.36 0.36 89 1005.6
20260906050054 13 355 8.0 14.5 0.00 0.36 0.36 87 1005.6
20260906044601 13 355 8.0 16.1 0.00 0.36 0.36 87 1005.9
20260906043053 13 31 12.9 17.7 0.00 0.36 0.36 87 1005.7
20260906041553 13 360 20.9 27.4 0.05 0.36 0.36 86 1004.9
20260906040128 13 5 20.9 27.4 0.20 0.36 0.36 87 1004.5
20260906034603 13 345 19.3 29.0 0.20 0.36 0.36 86 1004.7
20260906033104 14 346 16.1 24.1 0.20 0.36 0.36 83 1005.1
20260906031549 15 314 4.8 12.9 0.15 0.30 0.30 77 1005.8
20260906030047 16 196 8.0 12.9 0.00 0.15 0.15 69 1006.4
20260906024554 16 15 11.3 19.3 0.00 0.15 0.15 67 1004.2
20260906023050 15 34 9.7 16.1 0.00 0.15 0.15 70 1003.5
20260906021545 16 13 11.3 14.5 0.00 0.15 0.15 68 1003.4
20260906020043 16 360 9.7 16.1 0.00 0.15 0.15 66 1003.4
20260906014543 17 11 9.7 17.7 0.00 0.15 0.15 65 1003.4
20260906013043 17 355 12.9 20.9 0.00 0.15 0.15 64 1003.5
20260906011542 17 355 12.9 22.5 0.00 0.15 0.15 62 1003.6
20260906010042 18 9 14.5 20.9 0.00 0.15 0.15 60 1003.5
20260906004542 18 360 16.1 24.1 0.00 0.15 0.15 57 1003.5
20260906003041 19 355 16.1 25.7 0.00 0.15 0.15 55 1003.6
20260906001540 20 314 19.3 29.0 0.00 0.15 0.15 53 1003.7
20260906000040 21 337 20.9 30.6 0.00 0.15 0.15 50 1003.6